Vertical_Velocity
-5 2 1 1 -0 -2 -2 0 0 -1 -1 -2 -1 -1 -0 0 -2 0 -1 2 -3 2 0 -1 -1 -0 -2 -0 -0 1 -2 -0 1 -1 0 -0 -2 1 -2 -1 -1 -1 -1
3 -0 1 1 -0 -1 -3 -0 -0 -0 -0 -2 0 -2 -1 0 -2 1 -1 1 -3 -1 -1 -1 -0 -1 -2 2 -2 0 -1 0 1 -1 -1 -2 -2 -1 -2 -3 0 1 -1
-1 -0 0 1 -1 1 -2 -1 -0 -1 -1 -1 -1 -2 -2 -1 0 1 -1 0 -1 -1 0 -0 0 -1 1 0 -2 -2 -1 -3 -2 -3 -3 -1 -2 -1 -2 -3 -0 0 -2
-1 -1 -0 1 1 -1 -1 -3 1 1 -1 -1 -3 -1 -3 -1 1 -2 -0 -2 -1 -1 1 -1 0 -1 1 -1 -1 -1 -1 -2 -1 0 -1 -1 -2 -0 0 -1 -0 -1 -0
0 -1 0 1 1 -0 1 -3 -2 0 -1 -2 -1 -2 -2 -1 -1 -3 1 -0 -0 -1 0 -0 -0 -2 2 -0 -1 -1 -1 0 -1 1 -3 0 -1 -1 -1 -1 -1 -0 -1
-2 1 -1 0 -1 0 1 -0 -3 -1 -1 -1 1 -3 -1 -2 -1 -1 0 -0 0 -0 -1 2 -1 -1 0 -1 0 -0 -1 -0 -0 0 -1 -0 -1 -1 -1 -1 -0 -1 -1
-3 -3 0 -0 -1 -1 -1 1 -2 -0 -2 0 -1 -2 -1 0 -1 -0 -3 -0 -2 -1 -0 -1 1 -2 -2 1 -0 -2 -2 -1 -1 -2 -2 -1 -1 -0 -1 -1 -0 0 -1
3 -3 -0 -0 -1 0 -2 -1 -0 -2 -1 -0 -0 -3 -1 -0 -0 1 -2 -0 -2 -1 0 -2 0 -2 -4 2 -1 -1 -1 0 -1 -1 -2 -2 -0 -1 -1 -1 -1 1 -2
1 1 -1 0 -0 0 -1 -2 -0 -1 -2 -1 -1 -1 -2 -0 -1 0 -2 -2 -1 0 0 -1 1 -2 -2 0 -1 -1 -1 -1 1 -1 -1 -2 -2 -1 -1 -2 -2 -1 0
0 1 1 -0 -1 -1 -1 -2 -2 -1 -2 -1 -0 -3 -3 -1 -2 -0 -2 -2 1 -2 -0 -1 2 -3 -0 0 -1 -1 -0 -1 -1 -3 -1 -0 -2 -2 -1 -0 -1 -0 -1
3 2 -0 -1 1 -2 -1 -3 -2 0 0 0 -0 -0 -2 -3 -1 -3 -1 1 -1 0 0 -2 -1 -2 -0 0 -1 -1 -1 -1 1 -1 -0 1 -1 -1 -1 -1 -1 -1 -1
2 -3 1 -1 -0 -1 -3 -1 -4 -2 -0 0 -0 1 -2 -4 -2 -0 1 -1 -1 0 -0 -2 -2 -1 -1 -0 -2 -0 -2 -2 1 -1 -0 1 -1 -1 -1 -1 -1 -2 -2
4 2 5 -1 1 2 -2 -3 -1 -4 -2 -1 -0 -1 -2 -1 -2 -1 0 -0 -1 -2 -3 -2 -2 0 -2 -1 -2 -2 -1 -2 -1 -1 -0 1 -0 -1 -1 -1 -1 -0 -2
-3 -5 1 2 1 2 0 -1 1 -0 -1 -0 -2 -2 2 -0 -1 -3 -1 -1 -1 -2 -2 -3 -2 -2 -1 -2 -2 -1 -1 -3 -3 2 -0 1 0 -1 -1 0 -1 -1 -0
3 8 4 6 2 -0 2 3 -1 -1 -3 -2 -1 -1 -1 1 2 -0 0 -0 -2 -0 -0 -1 -1 0 -1 -1 -1 -1 -1 -1 -4 0 1 -0 -1 -1 -1 -1 -2 -1 -1
-4 -4 9 -0 7 0 2 3 2 -1 -3 -1 -1 -1 -2 -3 -0 -1 -1 0 -0 -1 0 0 -0 -0 -0 -1 -1 -1 -0 -0 -0 -4 3 -0 -1 -0 -1 0 -0 -1 -1
-1 0 1 -1 7 -0 -0 1 7 4 3 0 2 0 1 0 -2 -1 -0 1 -0 1 -1 -0 1 1 -0 -1 -2 -1 -1 -0 -2 -0 -3 2 -1 -1 -2 1 -1 -0 -1
7 8 5 -2 2 1 -4 9 1 6 2 0 6 4 2 0 0 3 -0 3 -0 0 -0 3 2 -1 -0 1 -1 -0 -1 -2 -1 -1 0 -3 1 -0 -2 -2 -1 -0 -2
4 1 7 4 5 3 5 0 2 4 0 2 -0 1 3 1 3 4 -0 -1 -1 -1 2 0 0 2 1 -0 -0 0 -1 -0 -1 -1 -1 -0 -1 -5 -0 -1 -2 -3 -1
2 10 2 0 10 -4 13 -5 2 3 2 4 -5 -5 2 -1 2 2 1 1 -0 1 -0 0 1 2 0 1 0 -0 -2 -1 -0 0 0 -1 -2 2 -8 -1 -1 -4 -4
2 -1 1 2 0 -0 1 -3 -5 -15 -3 1 1 -0 -1 5 2 3 0 -0 0 -1 1 2 -2 -0 2 2 1 1 0 0 1 1 0 0 0 -1 2 -3 -0 0 -1
4 1 -5 6 -2 -0 8 2 -0 9 -1 3 -0 -0 -1 6 -4 5 1 1 -1 0 -0 -2 -2 1 1 1 4 -2 1 -1 1 2 0 3 -2 1 0 -2 -2 -2 -2
3 2 -0 -7 4 0 4 2 2 -7 -3 -20 -13 5 1 -0 -0 10 10 0 -0 1 2 1 0 2 2 -1 2 -1 0 0 -1 4 0 1 2 -3 0 -1 2 -1 -2
-1 2 5 -7 4 4 -6 0 13 19 5 3 5 11 4 1 7 6 -1 -2 5 3 4 2 4 0 -2 5 3 -0 -2 -1 -0 -8 1 -1 5 3 2 0 1 2 2
-1 2 2 2 -1 -2 -5 2 -5 7 14 8 7 4 -19 -8 10 4 2 5 -4 -2 5 -10 8 1 -2 0 -2 -1 12 7 2 -6 -5 1 -0 -2 -5 -1 -2 -1 1
-3 -0 0 2 2 -0 5 3 1 6 1 1 -1 7 8 14 3 1 1 -3 6 12 12 8 -13 20 14 -8 -2 -11 -12 -5 -2 -0 2 8 2 1 -1 1 -1 1 3
Height
3156 3158 3161 3162 3165 3166 3167 3168 3169 3171 3171 3172 3173 3174 3175 3176 3177 3178 3178 3179 3181 3182 3184 3185 3187 3187 3187 3187 3188 3188 3188 3188 3189 3189 3189 3189 3189 3189 3189 3189 3189 3189 3189
3156 3157 3160 3162 3164 3165 3167 3168 3170 3171 3172 3173 3174 3175 3175 3176 3177 3178 3179 3180 3181 3183 3184 3186 3187 3188 3188 3189 3190 3190 3190 3190 3190 3190 3191 3191 3191 3192 3191 3191 3191 3191 3191
3155 3157 3159 3161 3163 3165 3167 3169 3170 3171 3173 3174 3175 3176 3176 3177 3178 3179 3180 3180 3182 3183 3185 3187 3188 3189 3190 3191 3191 3191 3192 3192 3192 3192 3192 3192 3193 3194 3194 3193 3193 3193 3193
3154 3157 3159 3161 3163 3165 3168 3169 3170 3172 3174 3175 3176 3177 3177 3178 3179 3180 3181 3182 3183 3185 3187 3189 3190 3190 3192 3192 3193 3193 3194 3194 3194 3194 3195 3195 3195 3196 3196 3196 3196 3195 3195
3152 3156 3158 3160 3162 3165 3168 3169 3171 3173 3174 3175 3177 3177 3178 3179 3180 3181 3183 3184 3186 3187 3189 3191 3192 3193 3193 3194 3194 3195 3196 3196 3196 3197 3197 3197 3198 3198 3198 3198 3197 3197 3196
3150 3155 3158 3161 3163 3165 3167 3169 3171 3173 3174 3176 3177 3178 3179 3180 3182 3183 3185 3186 3188 3189 3191 3192 3194 3195 3196 3196 3197 3198 3198 3198 3199 3199 3199 3199 3199 3199 3199 3199 3199 3198 3198
3149 3154 3158 3161 3163 3165 3167 3169 3171 3173 3175 3176 3178 3179 3180 3181 3184 3185 3187 3188 3190 3191 3192 3194 3196 3197 3198 3198 3199 3199 3200 3200 3200 3200 3201 3201 3201 3201 3200 3200 3200 3199 3199
3151 3153 3157 3160 3163 3165 3167 3169 3172 3173 3175 3177 3179 3181 3182 3183 3185 3187 3188 3190 3192 3193 3195 3196 3198 3199 3199 3200 3201 3201 3202 3202 3203 3203 3203 3203 3203 3202 3202 3202 3201 3200 3200
3149 3153 3156 3159 3161 3164 3167 3169 3171 3173 3175 3177 3180 3183 3184 3185 3187 3189 3191 3192 3193 3195 3196 3198 3199 3200 3201 3202 3202 3203 3204 3204 3205 3205 3205 3205 3204 3204 3203 3203 3202 3202 3201
3148 3151 3155 3158 3160 3163 3166 3169 3171 3174 3176 3178 3180 3183 3185 3187 3188 3190 3192 3193 3195 3197 3198 3199 3201 3202 3203 3204 3205 3205 3205 3206 3206 3206 3206 3206 3206 3205 3205 3204 3204 3203 3202
3146 3150 3153 3157 3160 3162 3165 3168 3171 3174 3176 3178 3181 3183 3186 3188 3189 3191 3193 3195 3196 3198 3199 3201 3202 3203 3205 3206 3206 3207 3207 3207 3208 3208 3208 3207 3207 3207 3206 3205 3205 3204 3203
3144 3148 3152 3156 3160 3162 3164 3168 3171 3174 3176 3179 3182 3184 3186 3188 3190 3192 3194 3196 3198 3199 3201 3202 3204 3205 3206 3207 3207 3208 3208 3208 3208 3208 3208 3208 3207 3207 3207 3206 3205 3204 3203
3142 3146 3150 3154 3158 3160 3164 3167 3171 3174 3177 3179 3182 3184 3187 3190 3192 3194 3195 3197 3199 3201 3203 3204 3205 3207 3207 3208 3209 3209 3209 3209 3209 3208 3208 3208 3207 3207 3207 3206 3205 3204 3203
3138 3143 3148 3152 3156 3160 3163 3166 3170 3173 3176 3179 3182 3184 3187 3190 3192 3194 3196 3198 3200 3202 3204 3205 3206 3207 3208 3208 3209 3209 3209 3208 3208 3208 3208 3208 3207 3207 3206 3205 3204 3203 3201
3135 3141 3145 3150 3155 3159 3161 3166 3169 3172 3175 3179 3181 3185 3187 3190 3192 3195 3197 3199 3201 3203 3204 3205 3206 3207 3208 3208 3209 3209 3208 3208 3207 3207 3207 3206 3206 3206 3205 3204 3202 3201 3200
3133 3138 3144 3149 3153 3157 3162 3165 3168 3171 3174 3178 3181 3184 3187 3190 3192 3194 3196 3198 3200 3202 3204 3205 3206 3207 3208 3208 3208 3208 3208 3207 3206 3206 3206 3205 3205 3204 3203 3202 3200 3199 3198
3131 3136 3142 3146 3151 3155 3159 3163 3168 3171 3174 3177 3180 3183 3186 3188 3190 3193 3195 3197 3200 3202 3203 3204 3205 3206 3207 3207 3207 3207 3207 3206 3205 3205 3204 3204 3204 3203 3202 3201 3199 3198 3196
3127 3132 3137 3143 3149 3153 3157 3161 3166 3170 3173 3176 3179 3182 3184 3186 3189 3191 3193 3196 3198 3200 3201 3202 3203 3204 3205 3206 3206 3206 3205 3205 3204 3204 3203 3202 3202 3201 3200 3199 3197 3196 3194
3127 3130 3134 3139 3146 3151 3155 3159 3164 3167 3171 3174 3177 3180 3182 3184 3186 3189 3191 3193 3195 3197 3198 3199 3200 3201 3202 3203 3203 3203 3203 3203 3202 3202 3201 3200 3199 3198 3198 3196 3194 3192 3191
3123 3128 3133 3138 3142 3147 3151 3157 3160 3163 3168 3171 3173 3176 3179 3182 3184 3186 3188 3189 3191 3193 3195 3196 3197 3198 3198 3199 3200 3200 3200 3200 3200 3200 3199 3197 3196 3195 3193 3192 3190 3188 3186
3120 3125 3130 3135 3139 3142 3145 3150 3155 3156 3163 3166 3169 3172 3174 3177 3180 3182 3183 3185 3186 3188 3189 3191 3192 3193 3194 3195 3196 3196 3197 3197 3197 3196 3195 3194 3193 3192 3190 3187 3186 3183 3181
3117 3122 3125 3132 3135 3139 3143 3147 3151 3153 3159 3162 3166 3167 3169 3172 3175 3177 3179 3180 3181 3183 3184 3186 3187 3188 3190 3190 3191 3191 3192 3193 3193 3192 3192 3191 3189 3188 3185 3183 3180 3177 3174
3114 3119 3122 3125 3131 3135 3139 3142 3147 3149 3150 3157 3162 3164 3165 3167 3169 3171 3173 3173 3175 3177 3178 3180 3182 3184 3184 3186 3187 3188 3188 3188 3188 3188 3188 3187 3185 3183 3180 3179 3177 3173 3169
3108 3113 3118 3122 3127 3131 3133 3138 3141 3143 3146 3150 3154 3157 3158 3161 3162 3163 3164 3166 3168 3170 3172 3174 3175 3178 3179 3181 3182 3183 3183 3182 3182 3182 3182 3181 3180 3179 3175 3174 3171 3168 3165
3103 3108 3112 3117 3121 3125 3128 3130 3135 3137 3139 3142 3146 3149 3149 3149 3157 3157 3157 3158 3160 3165 3166 3167 3170 3172 3172 3175 3175 3178 3179 3178 3177 3176 3176 3175 3173 3171 3169 3168 3166 3162 3160
3099 3103 3107 3111 3116 3119 3121 3125 3127 3131 3133 3137 3142 3143 3143 3146 3147 3151 3152 3152 3154 3157 3159 3161 3162 3163 3164 3167 3170 3171 3171 3171 3173 3171 3170 3170 3167 3164 3163 3162 3159 3156 3153